Location: Unspecified
(0.0000°N, 0.0000°E)
Time: 20:17:58
(UTC+00:00)

deb Kosmos-1275 - Pass Details

Date: 07 March 2026
Orbit: 928 x 975 km, 82.8° (Epoch: 10 April)

Event Time Altitude Azimuth Distance (km) Brightness Sun altitude
Rises 18:56:43 0° 177° (S) 3,580 ? -11.4°
Reaches altitude 10° 18:59:13 10° 174° (S) 2,632 ? -12.0°
Maximum altitude 19:05:09 65° 93° (E) 1,012 ? -13.5°
Drops below altitude 10° 19:11:04 10° 12° (NNE) 2,623 ? -15.0°
Sets 19:13:33 0° 9° (N) 3,568 ? -15.6°
